Location: ??????????
(48.4699°N, 37.9573°E)
Time: 12:22:46
(UTC+00:00)

COSMOS 2455 - Pass Details

Date: 20 January 2021
Orbit: 901 x 908 km, 67.1° (Epoch: 27 February)

Event Time Altitude Azimuth Distance (km) Brightness Sun altitude
Rises 15:58:10 0° 213° (SSW) 3,520 6.6 -17.9°
Reaches altitude 10° 16:00:39 10° 214° (SSW) 2,584 5.8 -18.3°
Maximum altitude 16:06:40 88° 301° (WNW) 915 2.8 -19.3°
Enters shadow 16:10:49 22° 34° (NNE) 1,904 4.2 -19.9°
